Weather in Kulebaki

Russia / Nizhny Novgorod Oblast'     55°25′46″N   42°30′44″E
temp.,
°C
wind,
m/s
gust,
m/s
humid.,
%
clouds,
%
prec.,
mm/h
press.,
hPa
HPBL,
m
19 april, mon
mon1900:00+6e4118281 0.0 1023604
03:00+4ene41186100 0.0 1024456
06:00+4ene51279100 0.0 1023523
09:00+6ene6115798 0.0 1024677
12:00+10e6947100 0.0 10241272
15:00+10e694299 0.0 10241545
18:00+8e51042100 0.0 10241371
21:00+5e51151100 0.0 1025932
20 april, tue
tue2000:00+4e5135699 0.0 1025649
03:00+2e5135899 0.0 1025573
06:00+2e5136488 0.0 1025601
09:00+6e61158100 0.0 1024879
12:00+7ese61357100 0.0 10231092
15:00+8ese61353100 0.0 10221350
18:00+8ese51359100 0.1 10201327
21:00+8ese71552100 0.1 10181301
21 april, wed
wed2100:00+6e71762100 0.3 10141140
03:00+3ese82091100 4.7 10111160
06:00+4ese81887100 0.6 10081037
09:00+6se81987100 1.0 10061220
12:00+7s61490100 0.2 10071296
15:00+8ssw6117495 0.3 10101150
18:00+6ssw51181100 0.1 10131195
21:00+6ssw41183100 0.1 1015807
22 april, thu
thu2200:00+5s31085100 0.0 1015424
03:00+5s2589100 0.0 1016132
06:00+5s129570 0.8 101756
09:00+9s247268 0.9 1017759
12:00+9ssw477780 1.0 1018989
15:00+12sw476346 1.8 10181418
18:00+10wsw366851 0.2 1019401
21:00+6s238611 0.2 102058
23 april, fri
fri2300:00+5sse248618 0.0 102166
03:00+5sse38875 0.0 1021153
06:00+5sse388931 0.0 1021183
09:00+13s476411 0.0 1021592
12:00+17ssw465053 0.2 10201604
15:00+17ssw454854 0.9 10201925
18:00+15s366145 0.3 1019264
21:00+10sse41088100 1.4 1019238